TimeEDT,TemperatureF,Dew PointF,Humidity,Sea Level PressureIn,VisibilityMPH,Wind Direction,Wind SpeedMPH,Gust SpeedMPH,PrecipitationIn,Events,Conditions,WindDirDegrees,DateUTC
12:53 AM,82.0,70.0,67,30.09,10.0,SSE,6.9,-,N/A,,Mostly Cloudy,150,2013-06-21 04:53:00
1:53 AM,82.9,72.0,69,30.07,10.0,SE,4.6,-,N/A,,Mostly Cloudy,140,2013-06-21 05:53:00
2:53 AM,82.9,72.0,69,30.05,10.0,SE,5.8,-,N/A,,Mostly Cloudy,140,2013-06-21 06:53:00
3:45 AM,82.4,71.6,70,30.04,10.0,South,6.9,-,N/A,,Scattered Clouds,190,2013-06-21 07:45:00
3:53 AM,80.1,72.0,76,30.04,10.0,SW,5.8,-,N/A,,Scattered Clouds,230,2013-06-21 07:53:00
4:53 AM,79.0,71.1,77,30.04,10.0,Calm,Calm,-,N/A,,Mostly Cloudy,0,2013-06-21 08:53:00
5:53 AM,79.0,71.1,77,30.04,10.0,Calm,Calm,-,N/A,,Scattered Clouds,0,2013-06-21 09:53:00
6:53 AM,80.1,71.1,74,30.05,10.0,Calm,Calm,-,N/A,,Scattered Clouds,0,2013-06-21 10:53:00
7:53 AM,82.9,71.1,67,30.07,10.0,Variable,4.6,-,N/A,,Scattered Clouds,0,2013-06-21 11:53:00
8:53 AM,86.0,70.0,59,30.09,10.0,SSE,12.7,-,N/A,,Scattered Clouds,150,2013-06-21 12:53:00
9:53 AM,87.1,70.0,57,30.10,10.0,SE,10.4,-,N/A,,Scattered Clouds,130,2013-06-21 13:53:00
10:53 AM,88.0,69.1,53,30.11,10.0,SSE,11.5,-,N/A,,Scattered Clouds,150,2013-06-21 14:53:00
11:53 AM,89.1,69.1,52,30.12,10.0,ESE,11.5,-,N/A,,Scattered Clouds,120,2013-06-21 15:53:00
12:53 PM,89.1,70.0,53,30.11,10.0,SE,11.5,20.7,N/A,,Scattered Clouds,130,2013-06-21 16:53:00
1:53 PM,89.1,70.0,53,30.10,10.0,SE,11.5,-,N/A,,Mostly Cloudy,140,2013-06-21 17:53:00
2:53 PM,89.1,70.0,53,30.09,10.0,SE,13.8,-,N/A,,Mostly Cloudy,130,2013-06-21 18:53:00
3:53 PM,89.1,68.0,50,30.08,10.0,East,12.7,-,N/A,,Scattered Clouds,100,2013-06-21 19:53:00
4:53 PM,88.0,70.0,55,30.07,10.0,ESE,10.4,-,N/A,,Scattered Clouds,120,2013-06-21 20:53:00
5:53 PM,87.1,71.1,59,30.06,10.0,ESE,15.0,-,N/A,,Scattered Clouds,120,2013-06-21 21:53:00
6:53 PM,84.9,70.0,61,30.08,10.0,ESE,9.2,-,N/A,,Scattered Clouds,110,2013-06-21 22:53:00
7:53 PM,84.0,69.1,61,30.08,10.0,East,8.1,-,N/A,,Scattered Clouds,90,2013-06-21 23:53:00
8:53 PM,84.0,69.1,61,30.10,10.0,East,9.2,-,N/A,,Scattered Clouds,100,2013-06-22 00:53:00
9:53 PM,84.0,69.1,61,30.11,10.0,East,9.2,-,N/A,,Scattered Clouds,100,2013-06-22 01:53:00
10:53 PM,84.0,69.1,61,30.12,10.0,East,9.2,-,N/A,,Partly Cloudy,100,2013-06-22 02:53:00
11:53 PM,82.9,70.0,65,30.11,10.0,ESE,8.1,-,N/A,,Partly Cloudy,110,2013-06-22 03:53:00